Printer-friendly version

IAU Minor Planet Center

Minor Planet Center

(84138) 2002 RT52

Orbital Elements

The following orbital elements are taken from MPO 60113
 (84138) 2002 RT52
Epoch 2007 Oct. 27.0 TT = JDT 2454400.5                 MPC
M 327.13587              (2000.0)            P               Q
n   0.21852075     Peri.   91.38124     +0.13036874     -0.99076790
a   2.7298635      Node   350.87240     +0.79065078     +0.12652184
e   0.1740173      Incl.   13.55789     +0.59822683     +0.04869487
P   4.51           H   15.0           G   0.15           U   1
From 76 observations at 4 oppositions, 1998-2004, mean residual 0".72.
An explanation of the orbital elements is available.

These orbital elements are also available in forms suitable for loading into a number of popular planetarium-type software programs.


Ephemeris

The following ephemeris is at intervals of five days. A daily ephemeris covering the same time interval is also available.

Personalized ephemerides for this (and other) objects may be generated using the Minor Planet & Comet Ephemeris Service.

Date    TT    R. A. (2000) Decl.     Delta      r     Elong.  Phase     V
2009 10 26    14 18.32   -22 21.7    4.030    3.059    10.8     3.5    20.8

2010 02 23    17 12.56   -35 25.6    3.286    3.167    74.4    17.5    21.0
2010 02 28    17 17.91   -35 50.5    3.221    3.170    78.2    17.8    21.0
2010 03 05    17 22.90   -36 15.3    3.154    3.173    82.0    18.0    20.9
2010 03 10    17 27.49   -36 40.2    3.087    3.175    86.0    18.2    20.9
2010 03 15    17 31.66   -37 05.3    3.019    3.178    90.0    18.2    20.9
2010 03 20    17 35.35   -37 30.6    2.951    3.180    94.0    18.2    20.8
2010 03 25    17 38.53   -37 56.2    2.884    3.183    98.2    18.1    20.8
2010 03 30    17 41.17   -38 22.0    2.817    3.185   102.4    17.8    20.7
2010 04 04    17 43.23   -38 48.1    2.752    3.187   106.7    17.5    20.6
2010 04 09    17 44.65   -39 14.3    2.689    3.189   111.1    17.0    20.6
2010 04 14    17 45.42   -39 40.6    2.627    3.191   115.6    16.5    20.5
2010 04 19    17 45.49   -40 06.6    2.569    3.193   120.1    15.8    20.4
2010 04 24    17 44.83   -40 32.1    2.513    3.195   124.7    15.0    20.4
2010 04 29    17 43.45   -40 56.8    2.461    3.196   129.4    14.1    20.3
2010 05 04    17 41.34   -41 20.1    2.413    3.197   134.1    13.1    20.2
2010 05 09    17 38.50   -41 41.6    2.370    3.199   138.7    12.0    20.1
2010 05 14    17 34.97   -42 00.7    2.332    3.200   143.3    10.9    20.0
2010 05 19    17 30.81   -42 16.7    2.299    3.201   147.8     9.7    20.0
2010 05 24    17 26.09   -42 29.2    2.272    3.202   152.0     8.5    19.9
2010 05 29    17 20.93   -42 37.6    2.252    3.203   155.6     7.5    19.8
2010 06 03    17 15.45   -42 41.7    2.238    3.203   158.5     6.7    19.8
2010 06 08    17 09.78   -42 41.0    2.231    3.204   160.1     6.2    19.8
2010 06 13    17 04.06   -42 35.7    2.230    3.204   160.1     6.2    19.8
2010 06 18    16 58.47   -42 25.8    2.237    3.204   158.7     6.6    19.8
2010 06 23    16 53.13   -42 11.6    2.250    3.205   155.9     7.4    19.8
2010 06 28    16 48.19   -41 53.8    2.269    3.205   152.4     8.5    19.9
2010 07 03    16 43.75   -41 32.9    2.295    3.204   148.3     9.6    20.0
2010 07 08    16 39.89   -41 09.6    2.326    3.204   143.9    10.8    20.0
2010 07 13    16 36.67   -40 44.6    2.363    3.204   139.3    11.9    20.1
2010 07 18    16 34.15   -40 18.5    2.406    3.203   134.7    13.0    20.2
2010 07 23    16 32.35   -39 52.0    2.452    3.203   130.1    14.0    20.3
2010 07 28    16 31.27   -39 25.6    2.503    3.202   125.5    15.0    20.4
2010 08 02    16 30.88   -38 59.8    2.558    3.201   121.0    15.8    20.4
2010 08 07    16 31.19   -38 34.9    2.615    3.200   116.6    16.5    20.5
2010 08 12    16 32.15   -38 11.2    2.676    3.199   112.2    17.1    20.6
2010 08 17    16 33.75   -37 48.7    2.738    3.198   107.9    17.5    20.6
2010 08 22    16 35.95   -37 27.7    2.803    3.196   103.7    17.9    20.7
2010 08 27    16 38.71   -37 08.1    2.868    3.195    99.5    18.2    20.8
2010 09 01    16 41.99   -36 49.9    2.935    3.193    95.5    18.3    20.8
2010 09 06    16 45.76   -36 33.0    3.002    3.192    91.5    18.4    20.9
2010 09 11    16 49.99   -36 17.3    3.069    3.190    87.6    18.4    20.9
2010 09 16    16 54.64   -36 02.7    3.136    3.188    83.8    18.3    20.9
2010 09 21    16 59.69   -35 49.1    3.203    3.186    80.0    18.1    21.0
2010 09 26    17 05.11   -35 36.3    3.268    3.183    76.3    17.8    21.0
2010 10 01    17 10.86   -35 24.1    3.333    3.181    72.6    17.5    21.0

Valid HTML 4.01!